Home   Weather   Rygge   Past weeks

Flag for Norway Past Weather in Rygge, Norway — Yesterday and Last 2 Weeks

Now
43 °F

Low clouds.


Feels Like: 40 °F
Forecast: 43 / 49 °F
Wind: 5 mph from Southwest

Location: Rygge

Current Time: Dec 7, 2016 at 11:31:31 pm

Latest Report: Dec 7, 2016 at 10:00 pm


Visibility: 0 mi

Pressure: 29.74 "Hg

Humidity: 98%

Dew Point: 42 °F

Location of RyggeLocation

Past Weather in Rygge — Graph

°F

Rygge Temperature Yesterday

Maximum temperature yesterday: 33 °F (at 3:00 am)
Minimum temperature yesterday: 27 °F (at 4:00 am)
Average temperature yesterday: 30 °F

High & Low Weather Summary for the Past Weeks

 TemperatureHumidityPressure
High49 °F (Nov 26, 12:00 pm)98% (Nov 23, 5:00 pm)30.47 "Hg (Nov 23, 5:00 pm)
Low19 °F (Dec 3, 5:00 am)42% (Nov 27, 12:00 pm)29.58 "Hg (Dec 1, 2:00 pm)
Average35 °F77%30.05 "Hg
* Reported Nov 22 11:00 pm — Dec 7 10:00 pm, Rygge, Weather by CustomWeather, © 2016

Note: Actual official high and low records may vary slightly from our data, if they occured in-between our weather recording intervals... More about our weather records

Advertising

Rygge Weather History for the Previous 24 Hours

Scroll right to see more
 ConditionsComfort  
Time TempWeatherWind HumidityBarometerVisibility
10:00 pm
Wed, Dec 7
43 °FLow clouds.5 mph98%29.74 "Hg0 mi
9:00 pm42 °FFog.6 mph98%29.75 "Hg1 mi
8:00 pm42 °FLow clouds.5 mph98%29.76 "Hg6 mi
7:00 pm42 °FLow clouds.6 mph98%29.78 "Hg6 mi
5:00 pm43 °FLight rain. Dense fog.5 mph98%29.80 "Hg2 mi
4:00 pm41 °FDrizzle. Low clouds.7 mph98%29.84 "Hg7 mi
1:00 pm39 °FRain. Low clouds.8 mph97%29.98 "Hg3 mi
12:00 pm40 °FRain. Low clouds.8 mph97%30.02 "Hg4 mi
11:00 am40 °FLight rain. Low clouds.6 mph97%30.07 "Hg4 mi
10:00 am40 °FRain showers. Low clouds.5 mph96%30.10 "Hg4 mi
9:00 am40 °FDrizzle. Low clouds.5 mph94%30.12 "Hg8 mi
8:00 am39 °FLow clouds.6 mph94%30.15 "Hg15 mi
7:00 am38 °FOvercast.5 mph93%30.18 "Hg14 mi
6:00 am38 °FLow clouds.6 mph96%30.20 "Hg5 mi
5:00 am38 °FLow clouds.5 mph95%30.22 "Hg8 mi
4:00 am38 °FOvercast.5 mph95%30.25 "Hg12 mi
3:00 am38 °FOvercast.2 mph94%30.27 "Hg10 mi
2:00 am37 °FOvercast.3 mph94%30.30 "Hg15 mi
1:00 am36 °FOvercast.2 mph95%30.33 "Hg19 mi
Weather by CustomWeather, © 2016

See weather overviewHow to use our weather pages